Skip Page Navigation
NASA JPL Caltech
NASA Logo - Jet Propulsion Laboratory + View the NASA Portal
+ Center for Near-Earth Object Studies
JPL Home Earth Solar System Stars & Galaxies Technology
JPL Solar System Dynamics
BODIES ORBITS EPHEMERIDES TOOLS PHYSICAL DATA DISCOVERY FAQ SITE MAP
JPL Small-Body Database Browser
Search: [ help ]  
72014 (2000 XD12)
Classification: Main-belt Asteroid          SPK-ID: 2072014
Ephemeris | Orbit Diagram | Orbital Elements | Mission Design | Physical Parameters | Discovery Circumstances | Close-Approach Data ]

[ show orbit diagram ]
Orbital Elements at Epoch 2459200.5 (2020-Dec-17.0) TDB
Reference: JPL 23 (heliocentric ecliptic J2000)
 Element Value Uncertainty (1-sigma)   Units 
e .08910070246603152 2.8527e-08  
a 2.373137326069188 1.0708e-08 au
q 2.161689123268064 6.6517e-08 au
i 7.037486912748752 5.0588e-06 deg
node 12.82856027101341 2.7333e-05 deg
peri 75.3628067286116 4.3766e-05 deg
M 160.8883880394948 3.2922e-05 deg
tp 2458603.732818136067
(2019-Apr-30.23281814)
0.00012129 TDB
period 1335.311939468733
3.66
9.038e-06
2.474e-08
d
yr
n .2695999259493101 1.8248e-09 deg/d
Q 2.584585528870313 1.1662e-08 au
  Orbit Determination Parameters
   # obs. used (total)      643  
   data-arc span      9652 days (26.43 yr)  
   first obs. used      1994-01-07  
   last obs. used      2020-06-11  
   planetary ephem.      DE441  
   SB-pert. ephem.      SB441-N16  
   condition code      0  
   norm. resid. RMS      .56386  
   source      ORB  
   producer      Otto Matic  
   solution date      2021-Apr-13 12:59:47  

Additional Information
 Earth MOID = 1.19008 au 
 Jupiter MOID = 2.56535 au 
 T_jup = 3.528 
[ show covariance matrix ]

Ephemeris | Orbit Diagram | Orbital Elements | Mission Design | Physical Parameters | Discovery Circumstances | Close-Approach Data ]

Physical Parameter Table
Parameter Symbol Value Units Sigma Reference Notes
absolute magnitude H 16.26   n/a E2021B10  

72014 (2000 XD12)          Discovered 2000-Dec-04 by LINEAR at Socorro
Reference: 20031109/Numbers.arcLast Updated: 2004-04-19

[ show close-approach data ]
Ephemeris | Orbit Diagram | Orbital Elements | Mission Design | Physical Parameters | Discovery Circumstances | Close-Approach Data ]
ABOUT SSD CREDITS/AWARDS PRIVACY/COPYRIGHT GLOSSARY LINKS
FirstGov 2021-Jun-18 19:21 UT
(server date/time)  
NASA Home Page
Site Manager:   Ryan S. Park
Webmaster  Alan B. Chamberlin